Home   Weather   Lakeland   Past weeks

Flag for USA Past Weather in Lakeland, Florida, USA — Yesterday and Last 2 Weeks

59 °F


Feels Like: 59 °F
Forecast: 58 / 79 °F
Wind: No wind

Location: Lakeland Regional

Current Time: Oct 24, 2016 at 3:03:47 AM

Latest Report: Oct 24, 2016 at 2:35 AM

Visibility: 10 mi

Pressure: 30.23 "Hg

Humidity: 82%

Dew Point: 54 °F

Location of LakelandLocation

Past Weather in Lakeland — Graph


Lakeland Temperature Yesterday

Maximum temperature yesterday: 77 °F (at 3:50 PM)
Minimum temperature yesterday: 50 °F (at 5:15 AM)
Average temperature yesterday: 60 °F

High & Low Weather Summary for the Past Weeks

High88 °F (Oct 9, 3:50 PM)100% (Oct 9, 1:35 AM)30.24 "Hg (Oct 9, 1:35 AM)
Low50 °F (Oct 23, 5:15 AM)29% (Oct 22, 2:50 PM)29.79 "Hg (Oct 21, 4:50 PM)
Average71 °F82%30.04 "Hg
* Reported Oct 9 1:15 AM — Oct 24 1:55 AM, Lakeland, Weather by CustomWeather, © 2016

Note: Actual official high and low records may vary slightly from our data, if they occured in-between our weather recording intervals... More about our weather records


Lakeland Weather History for the Previous 24 Hours

Scroll right to see more
Time TempWeatherWind HumidityBarometerVisibility
1:55 AM
Mon, Oct 24
59 °FClear.6 mph82%30.23 "Hg10 mi
1:35 AM59 °FClear.6 mph82%30.23 "Hg10 mi
1:15 AM61 °FClear.3 mph77%30.23 "Hg10 mi
12:55 AM61 °FClear.3 mph77%30.23 "Hg10 mi
12:35 AM61 °FClear.3 mph77%30.23 "Hg10 mi
12:15 AM61 °FClear.5 mph77%30.23 "Hg10 mi
11:55 PM
Sun, Oct 23
63 °FClear.6 mph73%30.24 "Hg10 mi
11:35 PM63 °FClear.6 mph73%30.24 "Hg10 mi
11:15 PM63 °FClear.7 mph73%30.24 "Hg10 mi
10:55 PM63 °FClear.8 mph73%30.24 "Hg10 mi
10:35 PM64 °FClear.7 mph73%30.24 "Hg10 mi
10:15 PM64 °FClear.6 mph73%30.23 "Hg10 mi
9:50 PM66 °FClear.7 mph68%30.22 "Hg10 mi
8:50 PM66 °FClear.7 mph73%30.21 "Hg10 mi
7:50 PM70 °FClear.5 mph60%30.18 "Hg10 mi
6:50 PM72 °FClear.5 mph53%30.16 "Hg10 mi
5:50 PM75 °FSunny.9 mph41%30.16 "Hg10 mi
4:50 PM77 °FSunny.9 mph42%30.16 "Hg10 mi
3:50 PM77 °FSunny.12 mph39%30.17 "Hg10 mi
2:50 PM75 °FSunny.10 mph41%30.18 "Hg10 mi
1:50 PM75 °FSunny.13 mph44%30.19 "Hg10 mi
12:51 PM73 °FSunny.6 mph47%30.23 "Hg10 mi
11:50 AM72 °FSunny.9 mph41%30.24 "Hg10 mi
10:50 AM68 °FSunny.8 mph46%30.24 "Hg10 mi
9:50 AM63 °FSunny.7 mph56%30.24 "Hg10 mi
8:50 AM55 °FSunny.5 mph77%30.21 "Hg10 mi
7:50 AM50 °FSunny.5 mph88%30.19 "Hg10 mi
6:58 AM50 °FClear.No wind88%30.17 "Hg10 mi
5:54 AM52 °FClear.5 mph88%30.14 "Hg10 mi
5:35 AM50 °FClear.7 mph88%30.14 "Hg10 mi
5:15 AM50 °FClear.6 mph88%30.13 "Hg10 mi
4:55 AM52 °FClear.5 mph82%30.13 "Hg10 mi
4:35 AM52 °FClear.3 mph82%30.13 "Hg10 mi
4:15 AM52 °FClear.6 mph82%30.12 "Hg10 mi
3:55 AM52 °FClear.5 mph82%30.12 "Hg10 mi
3:35 AM52 °FClear.5 mph88%30.12 "Hg10 mi
3:15 AM52 °FClear.6 mph88%30.12 "Hg10 mi
Weather by CustomWeather, © 2016

See weather overviewHow to use our weather pages